Holland, IN

2:12 PM EST on January 20, 2017 (GMT -0500)
Huntingburg

Weather History for KHNB - January, 2013

Change the Weather History Date:

Monday, January 7, 2013

  Actual Average Record
Temperature  
Mean Temperature 30 °F -  
Max Temperature 41 °F 38 °F 68 °F (2008)
Min Temperature 19 °F 25 °F -5 °F (2014)
Degree Days  
Heating Degree Days 35    
Moisture  
Dew Point 22 °F    
Average Humidity 77    
Maximum Humidity 93    
Minimum Humidity 57    
Precipitation  
Precipitation 0.00 in - - ()
Sea Level Pressure  
Sea Level Pressure 30.38 in    
Wind  
Wind Speed 3 mph (SSE)    
Max Wind Speed 12 mph    
Max Gust Speed -    
Visibility 8 miles    
Events      
Averages and records for this station are not official NWS values.
T = Trace of Precipitation, MM = Missing Value Source: NWS Daily Summary

Daily Weather History Graph

Daily Weather History Graph

Search for Another Location

Airport or City:

Trip Planner

Search our weather history database for the weather conditions in past years. The results will help you decide how hot, cold, wet, or windy it might be!

Date:

Astronomy

Jan. 07, 2013 Rise Set
Actual Time 8:04 AM EST 5:43 PM EST
Civil Twilight 7:35 AM EST 6:13 PM EST
Nautical Twilight 7:02 AM EST 6:46 PM EST
Astronomical Twilight 6:30 AM EST 7:17 PM EST
Moon 3:29 AM EST (1/7) 1:53 PM EST (1/7)
Length of Visible Light 10h 37m
Length of Day
9h 39m
Waning Crescent, 23% of the Moon is Illuminated
Jan 7
Waning Crescent
Jan 11
New
Jan 18
First Quarter
Jan 26
Full
Feb 3
Last Quarter

Hourly Weather History & Observations

Time (EST) Temp. Windchill Dew Point Humidity Pressure Visibility Wind Dir Wind Speed Gust Speed Precip Events Conditions
12:35 AM 24.8 °F - 19.4 °F 80% 30.41 in 7.0 mi Calm Calm - N/A   Mostly Cloudy
12:55 AM 24.8 °F 16.9 °F 19.4 °F 80% 30.40 in 7.0 mi West 6.9 mph - N/A   Partly Cloudy
1:16 AM 23.0 °F - 19.4 °F 86% 30.40 in 6.0 mi Calm Calm - N/A   Clear
1:35 AM 23.0 °F - 19.4 °F 86% 30.40 in 5.0 mi Calm Calm - N/A   Clear
1:55 AM 23.0 °F 18.4 °F 19.4 °F 86% 30.41 in 5.0 mi WNW 3.5 mph - N/A   Clear
2:35 AM 21.2 °F - 17.6 °F 86% 30.42 in 4.0 mi Calm Calm - N/A   Clear
2:55 AM 21.2 °F - 17.6 °F 86% 30.43 in 4.0 mi Calm Calm - N/A   Clear
3:15 AM 21.2 °F - 17.6 °F 86% 30.42 in 5.0 mi Calm Calm - N/A   Clear
3:55 AM 21.2 °F - 19.4 °F 93% 30.43 in 5.0 mi Calm Calm - N/A   Clear
4:15 AM 19.4 °F 14.3 °F 17.6 °F 93% 30.44 in 4.0 mi South 3.5 mph - N/A   Clear
4:35 AM 19.4 °F - 17.6 °F 93% 30.44 in 5.0 mi Calm Calm - N/A   Clear
4:55 AM 19.4 °F - 17.6 °F 93% 30.44 in 4.0 mi Calm Calm - N/A   Clear
5:15 AM 19.4 °F - 15.8 °F 86% 30.43 in 4.0 mi Calm Calm - N/A   Clear
5:35 AM 19.4 °F - 17.6 °F 93% 30.44 in 5.0 mi Calm Calm - N/A   Clear
5:55 AM 19.4 °F - 15.8 °F 86% 30.45 in 4.0 mi Calm Calm - N/A   Clear
6:15 AM 19.4 °F - 15.8 °F 86% 30.44 in 5.0 mi Calm Calm - N/A   Clear
6:35 AM 19.4 °F 14.3 °F 15.8 °F 86% 30.45 in 4.0 mi ESE 3.5 mph - N/A   Clear
6:55 AM 19.4 °F - 15.8 °F 86% 30.45 in 4.0 mi Calm Calm - N/A   Clear
7:35 AM 19.4 °F 14.3 °F 15.8 °F 86% 30.46 in 3.0 mi NE 3.5 mph - N/A   Clear
7:55 AM 19.4 °F - 15.8 °F 86% 30.46 in 3.0 mi Calm Calm - N/A   Clear
8:15 AM 19.4 °F 12.8 °F 15.8 °F 86% 30.46 in 2.5 mi NE 4.6 mph - N/A   Clear
8:35 AM 19.4 °F - 17.6 °F 93% 30.46 in 2.5 mi Calm Calm - N/A   Clear
8:55 AM 21.2 °F - 19.4 °F 93% 30.46 in 2.5 mi Calm Calm - N/A   Clear
9:15 AM 23.0 °F - 19.4 °F 86% 30.46 in 3.0 mi Calm Calm - N/A   Clear
9:35 AM 24.8 °F 19.1 °F 21.2 °F 86% 30.46 in 4.0 mi SE 4.6 mph - N/A   Clear
9:55 AM 26.6 °F 20.0 °F 23.0 °F 86% 30.47 in 5.0 mi SE 5.8 mph - N/A   Clear
10:15 AM 28.4 °F 20.4 °F 24.8 °F 86% 30.47 in 6.0 mi ESE 8.1 mph - N/A   Clear
10:35 AM 30.2 °F 22.6 °F 24.8 °F 80% 30.48 in 8.0 mi SE 8.1 mph - N/A   Clear
10:55 AM 30.2 °F 22.6 °F 26.6 °F 86% 30.49 in 8.0 mi SSE 8.1 mph - N/A   Clear
11:15 AM 30.2 °F 24.3 °F 24.8 °F 80% 30.49 in 9.0 mi SE 5.8 mph - N/A   Clear
11:35 AM 33.8 °F 29.6 °F 24.8 °F 70% 30.48 in 10.0 mi South 4.6 mph - N/A   Clear
11:55 AM 33.8 °F 27.7 °F 24.8 °F 70% 30.48 in 10.0 mi South 6.9 mph - N/A   Clear
12:15 PM 35.6 °F 28.6 °F 24.8 °F 65% 30.45 in 10.0 mi South 9.2 mph - N/A   Clear
12:35 PM 35.6 °F 27.5 °F 24.8 °F 65% 30.44 in 10.0 mi South 11.5 mph - N/A   Clear
12:55 PM 35.6 °F 28.6 °F 26.6 °F 70% 30.42 in 10.0 mi SE 9.2 mph - N/A   Clear
1:15 PM 35.6 °F 29.2 °F 24.8 °F 65% 30.40 in 10.0 mi South 8.1 mph - N/A   Clear
1:35 PM 37.4 °F 32.1 °F 26.6 °F 65% 30.39 in 10.0 mi SE 6.9 mph - N/A   Clear
2:15 PM 39.2 °F 33.6 °F 26.6 °F 61% 30.38 in 10.0 mi South 8.1 mph - N/A   Clear
2:35 PM 39.2 °F 34.2 °F 26.6 °F 61% 30.36 in 10.0 mi SE 6.9 mph - N/A   Clear
2:55 PM 39.2 °F 34.2 °F 26.6 °F 61% 30.35 in 10.0 mi SSE 6.9 mph - N/A   Clear
3:15 PM 39.2 °F 33.6 °F 26.6 °F 61% 30.34 in 10.0 mi South 8.1 mph - N/A   Clear
3:55 PM 41.0 °F 36.4 °F 26.6 °F 57% 30.33 in 10.0 mi South 6.9 mph - N/A   Clear
4:15 PM 41.0 °F 35.8 °F 26.6 °F 57% 30.32 in 10.0 mi SE 8.1 mph - N/A   Clear
4:35 PM 39.2 °F 35.9 °F 26.6 °F 61% 30.32 in 10.0 mi SSE 4.6 mph - N/A   Clear
4:55 PM 39.2 °F 35.0 °F 26.6 °F 61% 30.31 in 10.0 mi South 5.8 mph - N/A   Clear
5:15 PM 39.2 °F 35.0 °F 26.6 °F 61% 30.30 in 10.0 mi SSE 5.8 mph - N/A   Clear
5:35 PM 37.4 °F 32.8 °F 26.6 °F 65% 30.30 in 10.0 mi SSE 5.8 mph - N/A   Clear
6:15 PM 35.6 °F 30.7 °F 24.8 °F 65% 30.28 in 10.0 mi SE 5.8 mph - N/A   Clear
6:35 PM 35.6 °F 31.7 °F 24.8 °F 65% 30.29 in 10.0 mi SSE 4.6 mph - N/A   Clear
6:55 PM 35.6 °F - 24.8 °F 65% 30.29 in 10.0 mi Calm Calm - N/A   Clear
7:15 PM 33.8 °F 30.8 °F 23.0 °F 65% 30.28 in 10.0 mi SSE 3.5 mph - N/A   Clear
7:35 PM 33.8 °F 29.6 °F 24.8 °F 70% 30.27 in 10.0 mi SE 4.6 mph - N/A   Clear
7:55 PM 33.8 °F - 24.8 °F 70% 30.27 in 10.0 mi Calm Calm - N/A   Clear
8:15 PM 30.2 °F - 23.0 °F 75% 30.28 in 10.0 mi Calm Calm - N/A   Clear
8:55 PM 30.2 °F - 23.0 °F 75% 30.29 in 10.0 mi Calm Calm - N/A   Clear
9:15 PM 30.2 °F - 24.8 °F 80% 30.28 in 10.0 mi Calm Calm - N/A   Clear
9:35 PM 28.4 °F - 21.2 °F 74% 30.29 in 10.0 mi Calm Calm - N/A   Clear
9:55 PM 28.4 °F 23.3 °F 23.0 °F 80% 30.28 in 10.0 mi South 4.6 mph - N/A   Clear
10:15 PM 26.6 °F 21.2 °F 21.2 °F 80% 30.27 in 10.0 mi SSE 4.6 mph - N/A   Clear
10:35 PM 28.4 °F 22.2 °F 21.2 °F 74% 30.27 in 10.0 mi SSE 5.8 mph - N/A   Clear
10:55 PM 28.4 °F 22.2 °F 21.2 °F 74% 30.26 in 10.0 mi South 5.8 mph - N/A   Clear
11:15 PM 26.6 °F 19.1 °F 21.2 °F 80% 30.25 in 10.0 mi SSE 6.9 mph - N/A   Clear
11:35 PM 30.2 °F 23.4 °F 23.0 °F 75% 30.24 in 10.0 mi SSE 6.9 mph - N/A   Clear
11:55 PM 30.2 °F 26.7 °F 23.0 °F 75% 30.25 in 10.0 mi South 3.5 mph - N/A   Clear